Regional Weather Roundup
Issued by NWS

Home | Current Version | Previous Version | Text Only | Print | Product List | Glossary On
Versions: 1 2 3 4 5 6 7 8 9 10 11 12 13 14 15 16 17 18 19 20 21 22 23 24 25 26 27 28 29 30 31 32 33 34 35 36 37 38 39 40 41 42 43 44 45 46 47 48 49 50
429
ASUS44 KOUN 111510
RWROK

WEATHER ROUNDUP FOR OKLAHOMA
NATIONAL WEATHER SERVICE NORMAN OK
900 AM CST THU FEB 11 2016

NOTE: "FAIR" INDICATES FEW OR NO CLOUDS BELOW 12,000 FEET WITH NO
      SIGNIFICANT WEATHER AND/OR OBSTRUCTIONS TO VISIBILITY.

OKZ001>007-009>012-014-015-017-111600-
NORTHWEST OKLAHOMA AND THE PANHANDLE

CITY           SKY/WX    TMP DP  RH WIND       PRES   REMARKS
GAGE           SUNNY     37  29  72 N3        30.21R
GUYMON         SUNNY     38  25  59 NW3       30.22R
ENID/WOODRING  MOSUNNY  N/A N/A N/A N18       30.19R
$$

OKZ016-021>023-033>039-044-045-111600-
SOUTHWEST OKLAHOMA

CITY           SKY/WX    TMP DP  RH WIND       PRES   REMARKS
LAWTON/REGL    MOSUNNY   49  32  52 N18G25    30.15R
LAWTON/FT SILL CLOUDY    48  33  55 N14G22    30.14R
FREDERICK      SUNNY     47  34  60 N14       30.13R
CLINTON        SUNNY     43  30  60 N13       30.20R
HOBART         SUNNY     47  32  56 NE15      30.17R
ALTUS AFB      MOSUNNY   48  30  49 NW6       30.19
$$

OKZ018>020-024>031-111600-
CENTRAL OKLAHOMA

CITY           SKY/WX    TMP DP  RH WIND       PRES   REMARKS
OKLAHOMA CITY  PTSUNNY   43  32  65 N12       30.16R
OKC/WILEY POST SUNNY     41  31  67 N15       30.17R
OKC/TINKER AFB CLOUDY    43  32  64 N12       30.14R
STILLWATER     SUNNY     39  28  64 N16       30.18R WCI  30
GUTHRIE        SUNNY     41  31  67 VRB3      30.18R
$$

OKZ008-013-054>072-111600-
NORTHEAST OKLAHOMA

CITY           SKY/WX    TMP DP  RH WIND       PRES   REMARKS
TULSA          MOSUNNY   34  25  69 N16       30.19R WCI  24
TULSA/JONES    SUNNY     37  25  61 N10       30.19R WCI  30
PONCA CITY     SUNNY     34  25  69 NE18      30.21R WCI  23
BARTLESVILLE   SUNNY     31  22  69 NE16      30.24R WCI  20
MUSKOGEE       MOSUNNY   39  28  64 N17       30.16R WCI  30
$$

OKZ032-040>043-046>053-073>077-111600-
SOUTH CENTRAL/SOUTHEAST OKLAHOMA

CITY           SKY/WX    TMP DP  RH WIND       PRES   REMARKS
ARDMORE/DWNTWN SUNNY     52  30  43 N7        30.11R
MCALESTER      MOSUNNY   50  32  50 NE7       30.11R
$$





USA.gov is the U.S. government's official web portal to all federal, state and local government web resources and services.